CST,Max TemperatureF,Mean TemperatureF,Min TemperatureF,Max Dew PointF,MeanDew PointF,Min DewpointF,Max Humidity, Mean Humidity, Min Humidity, Max Sea Level PressureIn, Mean Sea Level PressureIn, Min Sea Level PressureIn, Max VisibilityMiles, Mean VisibilityMiles, Min VisibilityMiles, Max Wind SpeedMPH, Mean Wind SpeedMPH, Max Gust SpeedMPH,PrecipitationIn, CloudCover, Events, WindDirDegrees
2011-11-1,70,58,44,48,44,42,91,51,36,30.25,30.21,30.19,10,10,10,13,9,,0.00,0,Rain,111
2011-11-2,72,60,48,57,50,42,99,70,53,30.29,30.22,30.18,10,10,10,15,9,,0.00,0,,78
2011-11-3,78,63,47,70,60,41,100,88,65,30.17,30.07,29.92,10,10,2,18,9,29,0.00,5,Rain,108
2011-11-4,62,52,42,47,43,39,95,76,55,30.09,30.05,30.00,10,10,10,18,8,24,0.00,1,Rain,336
2011-11-5,70,56,42,48,43,38,99,57,34,30.21,30.14,30.09,10,10,10,16,9,17,0.00,0,,73
2011-11-6,74,62,49,58,52,41,81,64,55,30.30,30.23,30.19,10,10,10,17,10,25,0.00,2,Rain,78
2011-11-7,75,63,51,61,59,52,99,74,61,30.28,30.21,30.15,10,10,10,13,7,20,0.00,5,Rain,83
2011-11-8,75,66,57,65,61,58,99,82,66,30.18,30.11,30.07,10,10,10,16,7,22,0.00,2,Rain,100
2011-11-9,73,65,57,70,65,57,100,91,83,30.09,30.04,29.98,10,9,3,23,5,29,0.00,6,Rain,123
2011-11-10,57,52,41,57,43,29,100,72,44,30.20,30.09,30.00,10,10,10,20,14,26,0.00,4,,350
2011-11-11,64,48,33,41,31,28,95,46,26,30.31,30.24,30.20,10,10,10,15,7,17,0.00,0,Rain,5
2011-11-12,64,48,32,55,44,30,94,68,30,30.32,30.25,30.20,10,10,10,12,7,,0.00,3,Rain,100
2011-11-13,74,64,53,66,61,50,94,84,72,30.20,30.15,30.10,10,10,10,15,9,21,0.00,6,,113
2011-11-14,75,70,66,70,68,65,100,94,82,30.12,30.07,30.00,10,10,10,15,9,21,0.00,6,,120
2011-11-15,73,70,68,73,70,68,100,96,87,30.01,29.96,29.90,10,9,3,17,10,22,0.00,7,Rain,132
2011-11-16,78,74,69,76,72,66,100,95,83,29.93,29.89,29.84,10,8,1,23,10,30,0.11,5,Rain-Thunderstorm,195
2011-11-17,68,57,45,67,51,29,95,74,33,30.28,30.10,29.93,10,10,7,18,10,28,0.00,4,,338
2011-11-18,61,49,37,54,44,27,82,68,55,30.33,30.27,30.21,10,10,10,13,8,21,0.00,4,,76
2011-11-19,68,60,53,65,60,50,96,89,74,30.24,30.20,30.15,10,10,10,16,10,23,0.00,7,,93
2011-11-20,75,68,62,70,67,63,100,93,78,30.28,30.23,30.18,10,10,5,10,7,,0.00,6,Rain,109
2011-11-21,76,67,58,69,62,59,100,95,78,30.27,30.19,30.11,10,4,0,10,4,,0.00,0,Fog-Rain,55
2011-11-22,78,68,59,73,67,60,100,96,78,30.12,30.07,30.00,10,8,0,15,5,20,0.02,4,Fog-Rain,128
2011-11-23,71,60,50,72,63,48,100,91,53,30.21,30.07,30.01,10,9,3,16,7,21,0.28,6,Rain,339
2011-11-24,69,56,43,48,43,40,90,66,33,30.32,30.26,30.19,10,10,10,15,8,22,0.00,0,Rain,52
2011-11-25,70,58,46,57,50,43,94,76,53,30.30,30.24,30.16,10,10,10,15,8,18,0.00,1,Rain,84
2011-11-26,73,68,63,66,62,57,94,81,67,30.18,30.10,30.03,10,10,10,20,11,28,0.00,5,Rain,115
2011-11-27,71,62,53,68,63,52,100,89,73,30.03,29.92,29.84,10,9,3,22,11,32,0.18,8,Rain,193
2011-11-28,55,48,39,52,44,36,100,85,58,30.00,29.92,29.89,10,10,9,14,9,21,0.03,7,Rain,289
2011-11-29,59,48,38,39,35,32,84,68,41,30.12,30.02,29.94,10,10,10,16,6,23,0.00,4,,314
2011-11-30,55,44,30,37,35,29,94,73,48,30.21,30.15,30.10,10,10,10,13,6,16,0.00,2,,343